Regional Weather Roundup
Issued by NWS

Home | Current Version | Previous Version | Graphics & Text | Print | Product List | Glossary On
Versions: 1 2 3 4 5 6 7 8 9 10 11 12 13 14 15 16 17 18 19 20 21 22 23 24 25 26 27 28
000
ASUS45 KCYS 231810
RWRWY

WYOMING REGIONAL WEATHER ROUNDUP
NATIONAL WEATHER SERVICE CHEYENNE WY
1200 PM MDT SUN JUL 23 2017

NOTE:  "FAIR" INDICATES FEW OR NO CLOUDS BELOW 12,000 FEET
WITH NO SIGNIFICANT WEATHER AND/OR OBSTRUCTIONS TO VISIBILITY.

WYZ001-231900-
YELLOWSTONE NATIONAL PARK

CITY           SKY/WX    TMP DP  RH WIND       PRES   REMARKS
LK YELLOWSTONE   N/A     64  40  41 E3        30.38F
6HR MIN TEMP:  38; 6HR MAX TEMP:  66;

W YELLOWSTONE  NOT AVBL

$$
WYZ002>013-054>058-071-098>099-231900-
NORTHERN WYOMING

CITY           SKY/WX    TMP DP  RH WIND       PRES   REMARKS
JACKSON        SUNNY     68  39  34 SW3       30.31S
CODY           FAIR      85  34  16 VRB5      30.14F
GREYBULL       FAIR      87  38  17 VRB3      30.05F
6HR MIN TEMP:  55; 6HR MAX TEMP:  87;

WORLAND        FAIR      85  40  20 VRB6      30.07F
6HR MIN TEMP:  52; 6HR MAX TEMP:  85;

SHERIDAN       FAIR      86  40  19 CALM      30.08F
6HR MIN TEMP:  50; 6HR MAX TEMP:  86;

BUFFALO        FAIR      86  34  15 MISG      30.15F
6HR MIN TEMP:  60; 6HR MAX TEMP:  87;

GILLETTE       FAIR      88  41  19 VRB7      30.11F
6HR MIN TEMP:  60; 6HR MAX TEMP:  88;

HULETT         FAIR      82  45  26 NE6       30.14F
NEWCASTLE      FAIR      86  36  16 SE7       30.13F

$$
WYZ014>020-022>026-101>103-231900-
CENTRAL WYOMING

CITY           SKY/WX    TMP DP  RH WIND       PRES   REMARKS
BIG PINEY      FAIR      77  36  22 VRB5      30.31F
6HR MIN TEMP:  44; 6HR MAX TEMP:  77;

PINEDALE       FAIR      77  30  18 W5        30.32F
DUBOIS         FAIR      79  28  15 N5        30.29F
LANDER         FAIR      83  36  18 CALM      30.20F
6HR MIN TEMP:  59; 6HR MAX TEMP:  83;

RIVERTON       FAIR      80  37  21 NE6       30.18F
6HR MIN TEMP:  58; 6HR MAX TEMP:  80;

CASPER         FAIR      86  43  22 SE3       30.17F
6HR MIN TEMP:  51; 6HR MAX TEMP:  86;

DOUGLAS        FAIR      88  44  21 E7        30.16F
6HR MIN TEMP:  53; 6HR MAX TEMP:  88;


$$
WYZ021-027>030-104>119-231900-
SOUTHERN WYOMING

CITY           SKY/WX    TMP DP  RH WIND       PRES   REMARKS
EVANSTON       FAIR      81  33  17 NE5       30.31F
6HR MIN TEMP:  55; 6HR MAX TEMP:  81;

KEMMERER         N/A     81  28  15 SW8       30.33F
FORT BRIDGER   FAIR      82  26  12 N3        30.33F
ROCK SPRINGS   FAIR      83  28  13 N7        30.28F
6HR MIN TEMP:  59; 6HR MAX TEMP:  83;

RAWLINS        FAIR      85  28  12 E6        30.28F
6HR MIN TEMP:  50; 6HR MAX TEMP:  85;

SARATOGA       FAIR      82  23  11 CALM      30.31F
LARAMIE        FAIR      81  34  18 VRB6      30.32F
6HR MIN TEMP:  48; 6HR MAX TEMP:  81;

CHEYENNE       FAIR      81  44  27 SE9       30.25F
6HR MIN TEMP:  54; 6HR MAX TEMP:  87;

TORRINGTON     FAIR      85  55  35 VRB5      30.12F
6HR MIN TEMP:  60; 6HR MAX TEMP:  86;

PINE BLUFFS    FAIR      82  45  26 E3        30.19F

$$




USA.gov is the U.S. government's official web portal to all federal, state and local government web resources and services.